Location: Goheenville
(40.9070°N, 79.3720°W)
Time: 19:39:03
(UTC-05:00)

Cosmos 1727 Rocket - Visible Passes

Search period start: 20 February 2017 00:00
Search period end: 02 March 2017 00:00
Orbit: 962 x 995 km, 82.9° (Epoch: 19 February)

Date Brightness Start Highest point End Pass type
(mag) Time Alt. Az. Time Alt. Az. Time Alt. Az.
20 Feb 6.6 21:40:07 10° N 21:40:09 10° N 21:40:09 10° N visible
21 Feb 6.6 22:06:25 10° N 22:06:38 11° N 22:06:38 11° N visible
22 Feb 6.2 20:48:00 10° NNE 20:48:24 12° NNE 20:48:24 12° NNE visible
22 Feb 6.7 22:33:04 10° NNW 22:33:09 10° NNW 22:33:09 10° NNW visible
23 Feb 6.1 21:13:51 10° N 21:14:56 15° N 21:14:56 15° N visible
24 Feb 6.1 21:40:06 10° N 21:41:30 18° N 21:41:30 18° N visible
25 Feb 5.8 20:21:49 10° NNE 20:23:20 16° NNE 20:23:20 16° NNE visible
25 Feb 6.3 22:06:41 10° NNW 22:08:05 17° NNW 22:08:05 17° NNW visible
26 Feb 5.6 20:47:36 10° N 20:49:57 23° NNE 20:49:57 23° NNE visible
26 Feb 6.5 22:33:42 10° NNW 22:34:43 14° NW 22:34:43 14° NW visible
27 Feb 5.9 19:31:05 10° NE 19:31:52 11° NE 19:31:52 11° NE visible
27 Feb 5.4 21:13:47 10° N 21:16:37 29° N 21:16:37 29° N visible
28 Feb 5.4 19:55:40 10° NNE 19:58:33 20° NE 19:58:33 20° NE visible
28 Feb 5.6 21:40:18 10° NNW 21:43:19 29° NNW 21:43:19 29° NNW visible
01 Mar 4.9 20:21:21 10° N 20:25:18 33° NE 20:25:18 33° NE visible
01 Mar 6.0 22:07:14 10° NNW 22:10:05 22° NW 22:10:05 22° NW visible
